INTELSAT 32E (IS-32E)

Last updated on Fri Oct 11 2024 00:02:41 GMT+0000 (Coordinated Universal Time)

1 41945U 17007B 24284.31400031 -.00000264 00000+0 00000+0 0 9991 2 41945 0.0152 161.7518 0000604 316.4536 331.0781 1.00269126 28055
UTC large
Height (km)
Speed (km/s)
/
Latitude / Longitude
Inclination (degrees)
Orbital Period (minutes)
Azimuth
Elevation
Range (km)
Doppler Factor

Next 0 passes for location: London (51.5072 / 0.1276)

Sorry there are no passes over London.